Location: Hylvaty SDH
(49.9612°N, 16.4057°E)
Time: 19:18:34
(UTC+02:00)

Transit 4A - Pass Details

Date: 13 August 2020
Orbit: 862 x 982 km, 66.8° (Epoch: 28 September)

Event Time Altitude Azimuth Distance (km) Brightness Sun altitude
Rises 18:39:01 0° 320° (NW) 3,656 11.7 14.2°
Reaches altitude 10° 18:41:39 10° 315° (NW) 2,718 11.3 13.7°
Maximum altitude 18:47:40 45° 245° (WSW) 1,302 9.6 12.8°
Drops below altitude 10° 18:53:42 10° 174° (S) 2,728 10.2 11.8°
Sets 18:56:22 0° 169° (SSE) 3,669 10.8 11.4°
